Location: Unspecified
(0.0000°N, 0.0000°E)
Time: 17:49:35
(UTC+00:00)

Transit 4A - Pass Details

Date: 17 December 2018
Orbit: 862 x 983 km, 66.8° (Epoch: 17 June)

Event Time Altitude Azimuth Distance (km) Brightness Sun altitude
Rises 00:27:50 0° 175° (S) 3,510 - -65.4°
Reaches altitude 10° 00:30:54 10° 161° (SSE) 2,548 - -65.2°
Maximum altitude 00:35:24 23° 110° (ESE) 1,784 - -64.8°
Drops below altitude 10° 00:39:49 10° 60° (ENE) 2,501 - -64.3°
Sets 00:42:46 0° 46° (NE) 3,428 - -64.0°
